Rhodes, Greece

2:57 AM EEST on September 22, 2017 (GMT +0300)
Diagoras

Weather History for LGRP - January, 2013

Change the Weather History Date:

Sunday, January 27, 2013

  Actual Average Record
Temperature  
Mean Temperature 56 °F -  
Max Temperature 60 °F 59 °F 64 °F (2009)
Min Temperature 51 °F 48 °F 37 °F (2000)
Degree Days  
Heating Degree Days 8    
Growing Degree Days 6 (Base 50)    
Moisture  
Dew Point 50 °F    
Average Humidity 80    
Maximum Humidity 94    
Minimum Humidity 67    
Precipitation  
Precipitation 0.24 in 0.16 in - ()
Sea Level Pressure  
Sea Level Pressure 29.79 in    
Wind  
Wind Speed 7 mph ()    
Max Wind Speed 17 mph    
Max Gust Speed -    
Visibility 6.2 miles    
Events Rain , Thunderstorm    
Averages and records for this station are not official NWS values.
T = Trace of Precipitation, MM = Missing Value Source: Averaged Metar Reports

Daily Weather History Graph

Daily Weather History Graph

Search for Another Location

Airport or City:

Trip Planner

Search our weather history database for the weather conditions in past years. The results will help you decide how hot, cold, wet, or windy it might be!

Date:

Astronomy

Jan. 27, 2013 Rise Set
Actual Time 7:12 AM EET 5:28 PM EET
Civil Twilight 6:45 AM EET 5:55 PM EET
Nautical Twilight 6:14 AM EET 6:27 PM EET
Astronomical Twilight 5:43 AM EET 6:57 PM EET
Moon 6:00 PM EET (1/27) 6:56 AM EET (1/27)
Length of Visible Light 11h 10m
Length of Day
10h 15m
Full, 100% of the Moon is Illuminated
Jan 27
Full
Feb 3
Last Quarter
Feb 10
New
Feb 17
First Quarter
Feb 25
Full

Hourly Weather History & Observations

Time (EET) Temp. Dew Point Humidity Pressure Visibility Wind Dir Wind Speed Gust Speed Precip Events Conditions
12:20 AM 53.6 °F 46.4 °F 77% 29.68 in 6.2 mi SSW 6.9 mph - N/A   Scattered Clouds
12:50 AM 53.6 °F 46.4 °F 77% 29.68 in 6.2 mi SSW 4.6 mph - N/A   Scattered Clouds
1:20 AM 53.6 °F 46.4 °F 77% 29.68 in 6.2 mi SSW 6.9 mph - N/A   Scattered Clouds
1:50 AM 55.4 °F 48.2 °F 77% 29.71 in 6.2 mi SSW 6.9 mph - N/A   Scattered Clouds
2:00 AM 55 °F 48 °F 71% 29.71 in 6 mi SSW 6.9 mph - -   Partly Cloudy
2:20 AM 55.4 °F 48.2 °F 77% 29.71 in 5.6 mi SSW 8.1 mph - N/A Rain Light Rain
2:50 AM 55.4 °F 48.2 °F 77% 29.71 in 6.2 mi SSW 11.5 mph - N/A   Scattered Clouds
3:20 AM 55.4 °F 48.2 °F 77% 29.71 in 6.2 mi SSW 11.5 mph - N/A   Scattered Clouds
3:50 AM 55.4 °F 48.2 °F 77% 29.71 in 6.2 mi SW 8.1 mph - N/A   Scattered Clouds
4:20 AM 55.4 °F 48.2 °F 77% 29.71 in 6.2 mi SSW 5.8 mph - N/A   Scattered Clouds
4:50 AM 55.4 °F 48.2 °F 77% 29.74 in 6.2 mi SSW 8.1 mph - N/A   Scattered Clouds
5:20 AM 55.4 °F 48.2 °F 77% 29.74 in 5.6 mi West 11.5 mph - N/A Rain Light Rain
5:50 AM 55.4 °F 48.2 °F 77% 29.74 in 6.2 mi SE 6.9 mph - N/A   Scattered Clouds
6:20 AM 55.4 °F 48.2 °F 77% 29.74 in 6.2 mi South 5.8 mph - N/A   Scattered Clouds
6:50 AM 55.4 °F 48.2 °F 77% 29.74 in 6.2 mi South 4.6 mph - N/A   Scattered Clouds
7:20 AM 55.4 °F 48.2 °F 77% 29.74 in 6.2 mi Variable 3.5 mph - N/A   Scattered Clouds
7:50 AM 55.4 °F 48.2 °F 77% 29.77 in 6.2 mi SSW 6.9 mph - N/A   Scattered Clouds
8:00 AM 55 °F 48 °F 71% 29.77 in 6 mi SSW 6.9 mph - -   Partly Cloudy
8:20 AM 55.4 °F 48.2 °F 77% 29.77 in 6.2 mi SSW 8.1 mph - N/A   Scattered Clouds
8:50 AM 57.2 °F 51.8 °F 82% 29.74 in 6.2 mi SSW 9.2 mph - N/A   Scattered Clouds
9:20 AM 57.2 °F 51.8 °F 82% 29.77 in 6.2 mi SSW 9.2 mph - N/A   Scattered Clouds
9:50 AM 59.0 °F 53.6 °F 82% 29.80 in 6.2 mi SW 12.7 mph - N/A   Scattered Clouds
10:20 AM 59.0 °F 53.6 °F 82% 29.80 in 6.2 mi SW 12.7 mph - N/A   Scattered Clouds
10:50 AM 60.8 °F 51.8 °F 72% 29.80 in 6.2 mi WSW 10.4 mph - N/A   Scattered Clouds
11:20 AM 60.8 °F 51.8 °F 72% 29.80 in 6.2 mi WSW 10.4 mph - N/A   Scattered Clouds
11:50 AM 59.0 °F 53.6 °F 82% 29.80 in 6.2 mi WSW 12.7 mph - N/A   Scattered Clouds
12:50 PM 60.8 °F 55.4 °F 82% 29.80 in 6.2 mi WSW 16.1 mph - N/A   Scattered Clouds
1:20 PM 60.8 °F 55.4 °F 82% 29.80 in 6.2 mi WSW 16.1 mph - N/A   Scattered Clouds
1:50 PM 59.0 °F 51.8 °F 77% 29.80 in 6.2 mi West 17.3 mph - N/A   Mostly Cloudy
2:00 PM 59 °F 51 °F 67% 29.82 in 6 mi West 17.3 mph - -   Mostly Cloudy
2:20 PM 59.0 °F 51.8 °F 77% 29.80 in 6.2 mi West 9.2 mph - N/A   Scattered Clouds
2:50 PM 59.0 °F 51.8 °F 77% 29.80 in 6.2 mi WSW 12.7 mph - N/A   Scattered Clouds
3:20 PM 59.0 °F 51.8 °F 77% 29.83 in 6.2 mi WSW 12.7 mph - N/A   Scattered Clouds
3:50 PM 59.0 °F 51.8 °F 77% 29.83 in 6.2 mi WSW 15.0 mph - N/A   Scattered Clouds
4:20 PM 59.0 °F 51.8 °F 77% 29.83 in 6.2 mi WSW 10.4 mph - N/A   Scattered Clouds
4:50 PM 59.0 °F 51.8 °F 77% 29.83 in 6.2 mi WSW 10.4 mph - N/A   Scattered Clouds
5:20 PM 57.2 °F 53.6 °F 88% 29.83 in 6.2 mi SW 6.9 mph - N/A   Scattered Clouds
5:50 PM 55.4 °F 53.6 °F 94% 29.83 in 6.2 mi WSW 4.6 mph - N/A   Scattered Clouds
6:20 PM 55.4 °F 53.6 °F 94% 29.83 in 6.2 mi Variable 3.5 mph - N/A   Scattered Clouds
6:50 PM 53.6 °F 51.8 °F 94% 29.83 in 6.2 mi Variable 3.5 mph - N/A   Scattered Clouds
7:20 PM 53.6 °F 51.8 °F 94% 29.83 in 6.2 mi Variable 2.3 mph - N/A   Scattered Clouds
7:50 PM 53.6 °F 50.0 °F 88% 29.86 in 6.2 mi Variable 1.2 mph - N/A   Scattered Clouds
8:00 PM 53 °F 49 °F 83% 29.87 in 6 mi SSE 1.2 mph - -   Partly Cloudy
8:20 PM 53.6 °F 50.0 °F 88% 29.86 in 6.2 mi Variable 3.5 mph - N/A   Scattered Clouds
8:50 PM 53.6 °F 50.0 °F 88% 29.86 in 6.2 mi Variable 1.2 mph - N/A   Scattered Clouds
9:20 PM 53.6 °F 50.0 °F 88% 29.86 in 6.2 mi Variable 3.5 mph - N/A   Scattered Clouds
9:50 PM 53.6 °F 44.6 °F 72% 29.86 in 6.2 mi Calm Calm - N/A   Scattered Clouds
10:20 PM 53.6 °F 44.6 °F 72% 29.86 in 6.2 mi Calm Calm - N/A   Scattered Clouds
10:50 PM 53.6 °F 51.8 °F 94% 29.86 in 6.2 mi NNW 4.6 mph - N/A Rain Light Rain
11:20 PM 53.6 °F 51.8 °F 94% 29.86 in 6.2 mi NNW 4.6 mph - N/A Rain Light Rain
11:50 PM 51.8 °F 48.2 °F 88% 29.86 in 6.2 mi Calm Calm - N/A Rain , Thunderstorm Light Thunderstorms and Rain